This is the latest recevied weather packets stored in our database for station/object GW1482. If no packets are shown the sender has not sent any weather packets the latest 10 day(s).
| Time | Temp. | Humidity | Pressure | Rain* | Wind** | Luminosity | Snow |
|---|---|---|---|---|---|---|---|
| 1777509942 | 11.67° C | 99% | 996.9 hPa | 16.51 mm | - | - | - |
| 1777509205 | 11.67° C | 99% | 996.9 hPa | 16.51 mm | - | - | - |
| 1777508855 | 11.67° C | 99% | 996.9 hPa | 16.51 mm | - | - | - |
| 1777500222 | 14.44° C | 99% | 994.2 hPa | 13.72 mm | - | - | - |
| 1777498754 | 14.44° C | 99% | 994.2 hPa | 12.19 mm | - | - | - |
| 1777498048 | 14.44° C | 99% | 993.9 hPa | 12.19 mm | - | - | - |
| 1777497705 | 14.44° C | 99% | 993.9 hPa | 12.19 mm | - | - | - |
| 1777496959 | 14.44° C | 99% | 993.9 hPa | 12.19 mm | - | - | - |
| 1777495884 | 14.44° C | 99% | 993.5 hPa | 12.19 mm | - | - | - |
| 1777495513 | 14.44° C | 99% | 993.9 hPa | 12.19 mm | - | - | - |
| 1777494076 | 14.44° C | 99% | 994.2 hPa | 12.19 mm | - | - | - |
| 1777488338 | 14.44° C | 98% | 994.2 hPa | 6.1 mm | - | - | - |
| 1777485827 | 15° C | 99% | 995.2 hPa | 5.59 mm | - | - | - |
| 1777483307 | 14.44° C | 99% | 995.5 hPa | 4.83 mm | - | - | - |
| 1777482942 | 14.44° C | 99% | 995.5 hPa | 4.57 mm | - | - | - |
| 1777480774 | 15° C | 99% | 996.2 hPa | 3.3 mm | - | - | - |
| 1777475003 | 16.11° C | 93% | 997.2 hPa | 2.29 mm | - | - | - |
| 1777473589 | 15.56° C | 96% | 997.9 hPa | 2.29 mm | - | - | - |
| 1777470713 | 13.89° C | 99% | 997.9 hPa | 2.29 mm | - | - | - |
| 1777469237 | 13.89° C | 99% | 998.3 hPa | 2.29 mm | - | - | - |
| 1777468902 | 13.89° C | 99% | 998.6 hPa | 2.03 mm | - | - | - |
| 1777468160 | 13.33° C | 99% | 999.3 hPa | 1.78 mm | - | - | - |
| 1777463144 | 12.78° C | 94% | 998.3 hPa | 0 mm | - | - | - |
| 1777459181 | 12.78° C | 96% | 998.3 hPa | 0 mm | - | - | - |
| 1777455211 | 12.78° C | 97% | 998.6 hPa | 0 mm | - | - | - |
* Rain since midnight (hover to see other rain measurements)
** Current wind speed in m/s (hover to see current wind gust speed)